Location: Les Chemineaux
(47.3024°N, 1.5104°E)
Time: 15:53:03
(UTC+00:00)

Lacrosse 4 Rocket - Pass Details

Date: 19 May 2025
Orbit: 513 x 576 km, 68.0° (Epoch: 13 June)

Event Time Altitude Azimuth Distance (km) Brightness Sun altitude
Rises 20:13:53 0° 238° (WSW) 2,632 5.0 -7.0°
Reaches altitude 10° 20:16:14 10° 250° (WSW) 1,756 4.3 -7.3°
Maximum altitude 20:19:42 29° 312° (NW) 982 3.6 -7.8°
Drops below altitude 10° 20:23:14 10° 14° (NNE) 1,794 4.3 -8.2°
Sets 20:25:40 0° 26° (NNE) 2,701 5.1 -8.5°
